CW2927 Weather Reports


time (UTC)temp
C
wind
direction
speed
KPH
gust
KPH
rain 1hr
cm
rain 24hr
cm
rain mn
cm
humidity
%
barometer
mb
20260902124705 18 112 6.4 16.1 0.00 0.00 0.00 79 1017.6
20260902124204 18 138 8.0 37.0 0.00 0.00 0.00 79 1017.6
20260902122704 18 97 6.4 16.1 0.00 0.00 0.00 81 1017.4
20260902122204 18 133 9.7 19.3 0.00 0.00 0.00 81 1017.5
20260902120704 17 83 4.8 12.9 0.00 0.00 0.00 83 1017.6
20260902120204 17 104 4.8 11.3 0.00 0.00 0.00 84 1017.7
20260902114703 17 144 3.2 11.3 0.00 0.00 0.00 84 1017.9
20260902114204 17 121 4.8 14.5 0.00 0.00 0.00 84 1018.0
20260902112704 17 144 3.2 14.5 0.00 0.00 0.00 84 1018.1
20260902112204 17 114 3.2 12.9 0.00 0.00 0.00 84 1018.2
20260902110704 16 122 4.8 11.3 0.00 0.00 0.00 85 1018.4
20260902104704 16 156 4.8 12.9 0.00 0.00 0.00 86 1018.2
20260902104204 16 124 4.8 11.3 0.00 0.00 0.00 86 1018.1
20260902102704 16 110 3.2 9.7 0.00 0.00 0.00 86 1018.0
20260902102204 16 95 3.2 8.0 0.00 0.00 0.00 86 1017.9
20260902100704 16 123 3.2 8.0 0.00 0.00 0.00 86 1017.9
20260902100204 16 121 3.2 11.3 0.00 0.00 0.00 86 1017.8
20260902092703 15 130 1.6 4.8 0.00 0.00 0.00 86 1017.8
20260902092204 15 130 3.2 8.0 0.00 0.00 0.00 86 1017.8
20260902090704 16 106 1.6 4.8 0.00 0.00 0.00 85 1017.7
20260902090204 16 104 1.6 4.8 0.00 0.00 0.00 84 1017.8
20260902084704 16 103 1.6 4.8 0.00 0.00 0.00 84 1017.7
20260902084204 16 103 3.2 11.3 0.00 0.00 0.00 84 1017.7
20260902082703 16 120 3.2 11.3 0.00 0.00 0.00 83 1017.7
20260902082204 16 100 1.6 12.9 0.00 0.00 0.00 83 1017.6
20260902080703 16 110 3.2 9.7 0.00 0.00 0.00 84 1017.5
20260902080203 16 115 4.8 12.9 0.00 0.00 0.00 84 1017.6
20260902074706 16 100 4.8 9.7 0.00 0.00 0.00 85 1017.6
20260902074205 16 109 4.8 8.0 0.00 0.00 0.00 85 1017.6
20260902072705 16 113 0.0 3.2 0.00 0.00 0.00 85 1017.5
20260902072205 16 113 1.6 9.7 0.00 0.00 0.00 85 1017.5
20260902070706 16 101 3.2 8.0 0.00 0.00 0.00 86 1017.6
20260902070205 16 121 4.8 9.7 0.00 0.00 0.00 86 1017.6
20260902064706 16 113 1.6 8.0 0.00 0.00 0.00 87 1017.7
20260902064205 16 120 3.2 4.8 0.00 0.00 0.00 87 1017.6
20260902062705 15 85 0.0 1.6 0.00 0.00 0.00 86 1017.7
20260902062205 15 85 0.0 3.2 0.00 0.00 0.00 86 1017.6
20260902060705 15 85 0.0 3.2 0.00 0.00 0.00 86 1017.6
20260902060205 15 85 1.6 4.8 0.00 0.00 0.00 85 1017.5
20260902054705 15 84 1.6 3.2 0.00 0.00 0.00 85 1017.6
20260902054206 15 84 1.6 4.8 0.00 0.00 0.00 85 1017.5
20260902052205 15 61 0.0 3.2 0.00 0.00 0.00 84 1017.5
20260902050705 15 61 1.6 4.8 0.00 0.00 0.00 83 1017.5
20260902050205 15 60 0.0 4.8 0.00 0.00 0.00 83 1017.4
20260902044705 15 57 1.6 3.2 0.00 0.00 0.00 83 1017.3
20260902044205 15 57 1.6 4.8 0.00 0.00 0.00 83 1017.3
20260902042706 15 57 1.6 3.2 0.00 0.00 0.00 83 1017.2
20260902042205 15 57 3.2 4.8 0.00 0.00 0.00 83 1017.1
20260902040705 15 56 1.6 3.2 0.00 0.00 0.00 83 1017.0
20260902040205 15 56 0.0 8.0 0.00 0.00 0.00 83 1016.9
20260902034705 15 69 3.2 4.8 0.00 0.00 0.00 82 1016.7
20260902034205 15 69 3.2 8.0 0.00 0.00 0.00 82 1016.7
20260902032705 15 71 3.2 4.8 0.00 0.00 0.00 81 1016.6
20260902032205 15 70 3.2 9.7 0.00 0.00 0.00 81 1016.6
20260902030705 15 68 4.8 8.0 0.00 0.00 0.00 80 1016.5
20260902030205 16 75 3.2 8.0 0.00 0.00 0.00 80 1016.5
20260902024705 16 53 3.2 8.0 0.00 0.00 0.00 79 1016.6
20260902024205 16 47 4.8 9.7 0.00 0.00 0.00 79 1016.5
20260902022204 16 29 4.8 8.0 0.00 0.00 0.00 79 1016.4
20260902020705 16 64 3.2 8.0 0.00 0.00 0.00 78 1016.3
20260902020205 16 29 4.8 11.3 0.00 0.00 0.00 78 1016.3
20260902014705 17 30 3.2 8.0 0.00 0.00 0.00 77 1016.4
20260902014205 17 43 3.2 8.0 0.00 0.00 0.00 77 1016.3
20260902012705 17 49 4.8 8.0 0.00 0.00 0.00 76 1016.4
20260902010705 18 49 1.6 4.8 0.00 0.00 0.00 75 1016.3
20260902010205 18 65 3.2 9.7 0.00 0.00 0.00 75 1016.3
20260902004705 18 34 4.8 11.3 0.00 0.00 0.00 74 1016.3
20260902004207 18 67 4.8 11.3 0.00 0.00 0.00 74 1016.2
20260902002705 18 23 4.8 9.7 0.00 0.00 0.00 72 1016.1
20260902002205 19 33 6.4 11.3 0.00 0.00 0.00 72 1016.2
20260902000205 20 61 3.2 12.9 0.00 0.00 0.00 70 1016.0
20260901232704 21 57 8.0 19.3 0.00 0.00 0.00 64 1016.3
20260901232205 21 46 6.4 12.9 0.00 0.00 0.00 62 1016.3
20260901230705 22 30 3.2 4.8 0.00 0.00 0.00 50 1016.2
20260901230204 22 38 3.2 4.8 0.00 0.00 0.00 48 1016.2
20260901224705 23 81 1.6 4.8 0.00 0.00 0.00 47 1016.3
20260901224205 23 81 1.6 11.3 0.00 0.00 0.00 46 1016.3
20260901222705 23 69 3.2 4.8 0.00 0.00 0.00 46 1016.2
20260901222205 23 77 3.2 11.3 0.00 0.00 0.00 45 1016.2
20260901220205 23 67 8.0 14.5 0.00 0.00 0.00 44 1016.2
20260901214705 24 43 4.8 11.3 0.00 0.00 0.00 42 1016.1
20260901214205 24 82 6.4 16.1 0.00 0.00 0.00 43 1016.1
20260901212704 24 84 4.8 8.0 0.00 0.00 0.00 43 1016.1
20260901212204 24 50 3.2 12.9 0.00 0.00 0.00 43 1016.0
20260901210704 25 71 3.2 11.3 0.00 0.00 0.00 44 1016.2
20260901204705 24 53 8.0 14.5 0.00 0.00 0.00 42 1016.1
20260901202704 24 80 4.8 8.0 0.00 0.00 0.00 43 1015.8
20260901202204 24 132 6.4 14.5 0.00 0.00 0.00 43 1015.8
20260901200705 24 57 4.8 8.0 0.00 0.00 0.00 43 1015.9
20260901200205 24 84 4.8 11.3 0.00 0.00 0.00 43 1015.9
20260901194705 24 53 3.2 14.5 0.00 0.00 0.00 45 1016.0
20260901194205 24 54 4.8 12.9 0.00 0.00 0.00 45 1016.0
20260901192705 24 95 4.8 11.3 0.00 0.00 0.00 44 1016.1
20260901192205 24 81 4.8 14.5 0.00 0.00 0.00 47 1016.1
20260901190705 23 147 3.2 12.9 0.00 0.00 0.00 47 1016.2
20260901184705 23 5 3.2 8.0 0.00 0.00 0.00 54 1016.6
20260901184205 23 40 4.8 16.1 0.00 0.00 0.00 53 1016.6
20260901182704 23 36 4.8 11.3 0.00 0.00 0.00 52 1016.5
20260901182204 23 52 4.8 16.1 0.00 0.00 0.00 53 1016.5
20260901180704 23 74 6.4 12.9 0.00 0.00 0.00 55 1016.3
20260901174705 22 89 8.0 16.1 0.00 0.00 0.00 55 1016.7
20260901174204 22 65 4.8 16.1 0.00 0.00 0.00 57 1016.7
20260901172704 22 56 6.4 14.5 0.00 0.00 0.00 58 1016.7
20260901172204 22 94 3.2 12.9 0.00 0.00 0.00 57 1016.8
20260901170705 22 116 4.8 11.3 0.00 0.00 0.00 55 1016.9
20260901170204 22 76 8.0 12.9 0.00 0.00 0.00 53 1017.0
20260901164205 22 109 6.4 14.5 0.00 0.00 0.00 54 1017.1
20260901162704 22 38 8.0 19.3 0.00 0.00 0.00 54 1017.2
20260901162205 21 59 4.8 19.3 0.00 0.00 0.00 55 1017.2
20260901160704 21 20 6.4 12.9 0.00 0.00 0.00 58 1017.2
20260901160204 21 57 8.0 12.9 0.00 0.00 0.00 57 1017.4
20260901154704 22 125 3.2 11.3 0.00 0.00 0.00 61 1017.4
20260901154204 22 65 4.8 12.9 0.00 0.00 0.00 58 1017.5
20260901152704 21 80 4.8 11.3 0.00 0.00 0.00 63 1017.5
20260901152205 21 53 3.2 11.3 0.00 0.00 0.00 63 1017.6
20260901150704 20 46 4.8 12.9 0.00 0.00 0.00 63 1017.7
20260901150204 20 75 4.8 14.5 0.00 0.00 0.00 66 1017.6
20260901144704 20 75 4.8 11.3 0.00 0.00 0.00 67 1017.5
20260901144204 20 45 4.8 11.3 0.00 0.00 0.00 68 1017.5
20260901142704 19 80 8.0 12.9 0.00 0.00 0.00 69 1017.6
20260901142204 19 86 4.8 14.5 0.00 0.00 0.00 69 1017.6
20260901140704 18 77 4.8 11.3 0.00 0.00 0.00 70 1017.6
20260901140204 18 75 6.4 12.9 0.00 0.00 0.00 70 1017.5
20260901134704 18 41 4.8 9.7 0.00 0.00 0.00 73 1017.6
20260901134204 17 77 6.4 14.5 0.00 0.00 0.00 73 1017.7
20260901132705 17 58 6.4 12.9 0.00 0.00 0.00 76 1017.8
20260901132204 16 53 3.2 9.7 0.00 0.00 0.00 78 1017.9
20260901130704 15 65 4.8 9.7 0.00 0.00 0.00 81 1018.0
20260901130204 15 38 4.8 9.7 0.00 0.00 0.00 80 1017.9